Bellona/Anua Airport


Codes: AGGB/BNY
Name: Bellona/Anua Airport
City: Anua
Country: Solomon Islands
Elevation: 60 ft.
Wikipedia:

Photos at Bellona/Anua Airport


   Photos courtesy of SpottingLog. You can add your own sightings and photos by signing up for a free trial today.



No photos found.

Weather at Bellona/Anua Airport


Time (UTC)DescriptionTempratureWindCloud coverageVisibilityPressureHumidity
21-Jun-2024 12:00Light Rain28°C22 mph, SE76%10000m1012hPa81%
21-Jun-2024 15:00Broken Clouds28°C20 mph, E59%10000m1012hPa81%
21-Jun-2024 18:00Light Rain27°C20 mph, E43%10000m1011hPa82%
21-Jun-2024 21:00Light Rain28°C20 mph, E15%10000m1013hPa82%
22-Jun-2024 00:00Few Clouds28°C18 mph, E14%10000m1012hPa83%
22-Jun-2024 03:00Light Rain28°C18 mph, E26%10000m1010hPa83%
22-Jun-2024 06:00Light Rain28°C18 mph, E25%10000m1009hPa83%
22-Jun-2024 09:00Light Rain27°C18 mph, E24%10000m1011hPa84%
22-Jun-2024 12:00Light Rain27°C18 mph, E30%10000m1011hPa84%
22-Jun-2024 15:00Light Rain27°C18 mph, E99%10000m1010hPa85%
22-Jun-2024 18:00Light Rain27°C20 mph, E100%10000m1010hPa84%
22-Jun-2024 21:00Light Rain27°C18 mph, E100%10000m1011hPa81%
23-Jun-2024 00:00Light Rain27°C20 mph, E100%10000m1012hPa82%
23-Jun-2024 03:00Light Rain27°C20 mph, E100%10000m1009hPa79%
23-Jun-2024 06:00Overcast Clouds28°C20 mph, SE100%10000m1009hPa80%
23-Jun-2024 09:00Light Rain27°C18 mph, E100%10000m1010hPa81%
23-Jun-2024 12:00Light Rain27°C20 mph, E100%10000m1010hPa82%
23-Jun-2024 15:00Light Rain27°C18 mph, E100%10000m1009hPa82%
23-Jun-2024 18:00Light Rain28°C18 mph, E93%10000m1009hPa79%
23-Jun-2024 21:00Light Rain28°C20 mph, E90%10000m1011hPa79%
24-Jun-2024 00:00Light Rain27°C18 mph, E93%10000m1011hPa84%
24-Jun-2024 03:00Broken Clouds28°C18 mph, E83%10000m1008hPa83%
24-Jun-2024 06:00Light Rain28°C20 mph, E92%10000m1009hPa81%
24-Jun-2024 09:00Light Rain28°C20 mph, E99%10000m1010hPa81%
24-Jun-2024 12:00Overcast Clouds28°C18 mph, E100%10000m1011hPa83%
24-Jun-2024 15:00Broken Clouds28°C18 mph, E55%10000m1010hPa83%
24-Jun-2024 18:00Broken Clouds28°C18 mph, E68%10000m1010hPa82%
24-Jun-2024 21:00Overcast Clouds28°C18 mph, E96%10000m1012hPa81%
25-Jun-2024 00:00Light Rain28°C18 mph, E88%10000m1012hPa82%
25-Jun-2024 03:00Light Rain28°C18 mph, E70%10000m1010hPa81%
25-Jun-2024 06:00Light Rain27°C20 mph, E58%10000m1010hPa82%
25-Jun-2024 09:00Light Rain28°C22 mph, E86%10000m1012hPa82%
25-Jun-2024 12:00Overcast Clouds27°C25 mph, E85%10000m1012hPa83%
25-Jun-2024 15:00Light Rain28°C25 mph, E100%10000m1012hPa82%
25-Jun-2024 18:00Light Rain28°C25 mph, E99%10000m1012hPa81%
25-Jun-2024 21:00Light Rain28°C25 mph, E100%10000m1013hPa84%
26-Jun-2024 00:00Overcast Clouds28°C25 mph, E96%10000m1013hPa84%
26-Jun-2024 03:00Broken Clouds28°C22 mph, E69%10000m1011hPa84%
26-Jun-2024 06:00Light Rain28°C25 mph, E62%10000m1011hPa83%
26-Jun-2024 09:00Overcast Clouds27°C25 mph, E98%10000m1012hPa84%